Date String (YYYY-MM-DD hh:mm:ss) UTC,Instrument flags,Ambient pressure (hPa),Sample flow (lpm),Bypass flow (lpm),Sample temperature (°C),Ambient temperature (°C),ASC tube jacket temperature (°C),LED temperature (°C),Box temperature (°C),Sample RH (%),Span deviation,Mass concentration (μg/m³),Mass concentration (μg/m³),Mass concentration (μg/m³)
DateTimeUTC,F1_M11,P_M11,Q1_M11,Q2_M11,T1_M11,T2_M11,T3_M11,T4_M11,T5_M11,U1_M11,ZSPAN_M11,X0_M11,X2_M11,X1_M11
2021-11-20 05:00:00,,0823.8,5.02,0.00,26.8,26.0,00.0,35.8,28.6,10.6,0000.0,0009.06,0003.86,0003.52
2021-11-20 05:01:00,,0823.8,5.00,0.00,26.8,26.0,00.0,35.8,28.6,10.6,0000.0,0008.76,0003.88,0003.53
2021-11-20 05:02:00,,0823.7,4.98,0.00,26.8,26.0,00.0,35.8,28.6,10.6,0000.0,0008.68,0003.89,0003.53
2021-11-20 05:03:00,,0823.8,5.02,0.00,26.8,26.0,00.0,35.8,28.6,10.7,0000.0,0008.32,0003.92,0003.52
2021-11-20 05:04:00,,0823.8,4.99,0.00,26.8,26.0,00.0,35.8,28.6,10.7,0000.0,0007.86,0003.94,0003.53
2021-11-20 05:05:00,,0823.8,5.02,0.00,26.8,26.0,00.0,35.8,28.6,10.7,0000.0,0007.47,0003.91,0003.52
2021-11-20 05:06:00,,0823.8,4.98,0.00,26.8,26.1,00.0,35.8,28.6,10.6,0000.0,0007.37,0003.90,0003.51
2021-11-20 05:07:00,,0823.8,5.00,0.00,26.8,26.1,00.0,35.8,28.7,10.6,0000.0,0006.51,0003.87,0003.50
2021-11-20 05:08:00,,0823.9,5.02,0.00,26.8,26.1,00.0,35.8,28.6,10.6,0000.0,0006.67,0003.85,0003.50
2021-11-20 05:09:00,,0824.0,4.99,0.00,26.8,26.1,00.0,35.8,28.7,10.6,0000.0,0006.69,0003.85,0003.50
2021-11-20 05:10:00,,0824.0,5.00,0.00,26.8,26.1,00.0,35.8,28.7,10.6,0000.0,0006.69,0003.85,0003.50
2021-11-20 05:11:00,,0824.0,5.00,0.00,26.8,26.1,00.0,35.8,28.7,10.6,0000.0,0007.07,0003.85,0003.49
2021-11-20 05:12:00,,0824.0,4.99,0.00,26.9,26.1,00.0,35.8,28.7,10.6,0000.0,0007.27,0003.86,0003.49
2021-11-20 05:13:00,,0823.9,5.01,0.00,26.9,26.1,00.0,35.8,28.7,10.6,0000.0,0007.34,0003.86,0003.49
2021-11-20 05:14:00,,0823.9,5.00,0.00,26.9,26.1,00.0,35.8,28.7,10.6,0000.0,0007.25,0003.84,0003.48
2021-11-20 05:15:00,,0823.9,5.00,0.00,26.9,26.1,00.0,35.8,28.7,10.6,0000.0,0007.21,0003.82,0003.47
2021-11-20 05:16:00,,0824.0,4.98,0.00,26.9,26.2,00.0,35.8,28.7,10.6,0000.0,0007.43,0003.90,0003.48
2021-11-20 05:17:00,,0824.0,5.01,0.00,26.9,26.2,00.0,35.8,28.7,10.6,0000.0,0007.39,0003.89,0003.48
2021-11-20 05:18:00,,0824.0,4.98,0.00,26.9,26.2,00.0,35.9,28.7,10.6,0000.0,0007.13,0003.88,0003.47
2021-11-20 05:19:00,,0824.0,5.01,0.00,26.9,26.2,00.0,35.9,28.8,10.7,0000.0,0006.79,0003.87,0003.47
2021-11-20 05:20:00,,0824.0,5.01,0.00,26.9,26.2,00.0,35.9,28.8,10.6,0000.0,0006.77,0003.84,0003.46
2021-11-20 05:21:00,,0824.1,5.00,0.00,27.0,26.2,00.0,35.9,28.8,10.6,0000.0,0007.31,0003.82,0003.44
2021-11-20 05:22:00,,0824.0,5.01,0.00,27.0,26.2,00.0,35.9,28.8,10.6,0000.0,0007.20,0003.81,0003.43
2021-11-20 05:23:00,,0824.1,5.00,0.00,27.0,26.2,00.0,35.9,28.8,10.7,0000.0,0007.00,0003.81,0003.43
2021-11-20 05:24:00,,0824.1,4.99,0.00,27.0,26.2,00.0,35.9,28.8,10.7,0000.0,0006.97,0003.78,0003.41
2021-11-20 05:25:00,,0824.1,5.01,0.00,27.0,26.2,00.0,35.9,28.8,10.7,0000.0,0007.10,0003.79,0003.40
2021-11-20 05:26:00,,0824.1,4.98,0.00,27.0,26.2,00.0,35.9,28.8,10.6,0000.0,0007.20,0003.80,0003.39
2021-11-20 05:27:00,,0824.1,5.01,0.00,26.9,26.2,00.0,35.9,28.7,10.6,0000.0,0007.19,0003.79,0003.39
2021-11-20 05:28:00,,0824.1,5.01,0.00,26.9,26.1,00.0,35.9,28.7,10.6,0000.0,0007.17,0003.77,0003.40
2021-11-20 05:29:00,,0824.1,4.99,0.00,26.9,26.1,00.0,35.9,28.7,10.6,0000.0,0008.21,0003.80,0003.40
2021-11-20 05:30:00,,0824.1,4.99,0.00,26.9,26.1,00.0,35.9,28.7,10.6,0000.0,0008.30,0003.82,0003.40
2021-11-20 05:31:00,,0824.1,5.01,0.00,26.9,26.1,00.0,35.9,28.7,10.6,0000.0,0008.41,0003.87,0003.41
2021-11-20 05:32:00,,0824.1,5.00,0.00,26.9,26.1,00.0,35.9,28.7,10.6,0000.0,0008.19,0003.91,0003.42
2021-11-20 05:33:00,,0824.0,4.99,0.00,26.9,26.1,00.0,35.9,28.7,10.6,0000.0,0008.25,0003.97,0003.44
2021-11-20 05:34:00,,0824.0,5.01,0.00,26.9,26.1,00.0,35.9,28.7,10.6,0000.0,0008.27,0003.98,0003.44
2021-11-20 05:35:00,,0824.0,4.99,0.00,26.9,26.1,00.0,35.9,28.7,10.6,0000.0,0008.29,0004.00,0003.46
2021-11-20 05:36:00,,0824.0,5.01,0.00,26.9,26.1,00.0,35.9,28.7,10.6,0000.0,0008.25,0004.01,0003.47
2021-11-20 05:37:00,,0824.0,5.00,0.00,26.9,26.1,00.0,35.9,28.7,10.6,0000.0,0008.33,0004.01,0003.49
2021-11-20 05:38:00,,0824.0,5.00,0.00,26.9,26.1,00.0,35.9,28.7,10.5,0000.0,0008.28,0003.98,0003.49
2021-11-20 05:39:00,,0824.0,5.00,0.00,26.9,26.1,00.0,35.9,28.7,10.6,0000.0,0008.37,0003.97,0003.48
2021-11-20 05:40:00,,0824.1,4.99,0.00,26.9,26.1,00.0,35.9,28.7,10.6,0000.0,0007.65,0003.97,0003.48
2021-11-20 05:41:00,,0824.0,4.99,0.00,26.9,26.1,00.0,35.9,28.7,10.6,0000.0,0007.48,0003.96,0003.47
2021-11-20 05:42:00,,0824.0,5.01,0.00,27.0,26.1,00.0,35.9,28.7,10.6,0000.0,0007.37,0003.90,0003.45
2021-11-20 05:43:00,,0824.0,5.00,0.00,27.0,26.1,00.0,35.9,28.8,10.6,0000.0,0007.37,0003.85,0003.45
2021-11-20 05:44:00,,0824.0,5.01,0.00,27.0,26.1,00.0,35.9,28.8,10.6,0000.0,0007.60,0003.80,0003.44
2021-11-20 05:45:00,,0824.0,5.00,0.00,27.0,26.1,00.0,36.0,28.8,10.6,0000.0,0007.48,0003.77,0003.45
2021-11-20 05:46:00,,0824.1,5.00,0.00,27.0,26.1,00.0,36.0,28.8,10.5,0000.0,0007.41,0003.74,0003.44
2021-11-20 05:47:00,,0824.1,4.99,0.00,27.0,26.1,00.0,36.0,28.8,10.5,0000.0,0007.41,0003.74,0003.45
2021-11-20 05:48:00,,0824.0,4.99,0.00,27.0,26.1,00.0,36.0,28.8,10.5,0000.0,0007.29,0003.74,0003.43
2021-11-20 05:49:00,,0824.0,5.00,0.00,27.0,26.2,00.0,36.0,28.8,10.5,0000.0,0007.46,0003.75,0003.43
2021-11-20 05:50:00,,0824.0,5.02,0.00,27.0,26.2,00.0,36.0,28.8,10.4,0000.0,0007.32,0003.72,0003.42
2021-11-20 05:51:00,,0824.0,5.00,0.00,27.0,26.1,00.0,36.0,28.8,10.5,0000.0,0007.22,0003.70,0003.41
2021-11-20 05:52:00,,0824.0,5.00,0.00,27.0,26.1,00.0,36.0,28.8,10.5,0000.0,0007.86,0003.72,0003.41
2021-11-20 05:53:00,,0824.0,5.01,0.00,27.0,26.1,00.0,36.0,28.8,10.6,0000.0,0008.12,0003.78,0003.42
2021-11-20 05:54:00,,0824.0,4.99,0.00,27.0,26.1,00.0,36.0,28.8,10.6,0000.0,0008.16,0003.83,0003.42
2021-11-20 05:55:00,,0824.0,5.01,0.00,27.0,26.1,00.0,35.9,28.7,10.6,0000.0,0007.88,0003.85,0003.42
2021-11-20 05:56:00,,0824.0,4.98,0.00,27.0,26.1,00.0,35.9,28.7,10.5,0000.0,0008.42,0003.88,0003.42
2021-11-20 05:57:00,,0824.1,5.01,0.00,27.0,26.1,00.0,35.9,28.7,10.5,0000.0,0008.54,0003.90,0003.43
2021-11-20 05:58:00,,0824.0,5.00,0.00,27.0,26.1,00.0,36.0,28.7,10.5,0000.0,0008.51,0003.90,0003.42
2021-11-20 05:59:00,,0824.1,4.99,0.00,27.0,26.1,00.0,35.9,28.7,10.5,0000.0,0008.52,0003.91,0003.44
